GPS BIII-3

Last updated on Sat Jun 27 2026 00:02:56 GMT+0000 (Coordinated Universal Time)

1 45854U 20041A 26177.71006220 -.00000081 00000+0 00000+0 0 9992 2 45854 56.6762 28.5735 0064532 204.5005 157.1000 2.00558725 44237
UTC large
Height (km)
Speed (km/s)
/
Latitude / Longitude
Inclination (degrees)
Orbital Period (minutes)
Azimuth
Elevation
Range (km)
Doppler Factor

Next 0 passes for location: London (51.5072 / 0.1276)

No passes found over London.
GPS BIII-3